Location: Newark
(50.4348°N, 30.5552°E)
Time: 06:24:52
(UTC+00:00)

Envisat - Pass Details

Date: 17 December 2019
Orbit: 764 x 766 km, 98.1° (Epoch: 20 January)

Event Time Altitude Azimuth Distance (km) Brightness Sun altitude
Rises 14:57:35 0° 142° (SE) 3,224 6.1 -9.4°
Reaches altitude 10° 14:59:58 10° 136° (SE) 2,302 5.3 -9.8°
Maximum altitude 15:04:43 42° 66° (ENE) 1,090 3.3 -10.4°
Drops below altitude 10° 15:09:30 10° 357° (N) 2,317 5.3 -11.1°
Sets 15:11:54 0° 351° (N) 3,247 6.1 -11.5°
